Vorticity
11 11 10 9 7 7 7 8 9 10 13 14 14 13 11 12 14 15 13 9 6 5 5 5 6 6 5 4 5 5 5 5 4 4 3 6 6 2 3 4 4 3 3 3 3 3 4 5 6 9 15 21 22 14 8 6 6 7 7 8 8 10 16 17 14 9 5 6 4 -1 3 1 -0 6 10 12 4 -5 -1 4 5 6 3 -0 9 13 6 4
10 11 11 11 10 8 7 6 6 7 8 10 12 14 14 13 12 12 14 14 11 9 7 6 6 6 6 5 4 5 5 5 5 4 3 6 4 2 3 3 3 3 3 3 3 3 3 3 4 6 7 12 19 20 15 9 5 7 7 7 8 12 15 9 6 7 0 3 7 2 3 4 6 4 8 17 6 -2 4 3 4 11 15 8 4 5 3 1
12 11 10 11 11 11 10 8 7 5 6 6 8 10 12 15 15 13 12 12 13 13 11 10 8 7 7 6 5 4 4 5 6 3 3 6 4 3 3 2 3 3 3 4 3 3 3 3 3 4 5 7 11 16 19 16 9 6 6 8 7 11 20 13 7 10 2 1 6 2 1 3 7 5 7 16 10 4 6 3 3 8 15 13 7 2 0 2
13 14 14 13 12 11 11 11 10 8 7 5 5 6 7 10 13 15 15 13 12 12 13 12 11 10 8 8 7 5 3 4 5 2 3 6 3 2 3 3 3 4 4 3 3 3 4 3 4 4 4 4 6 10 14 19 20 11 6 7 5 10 17 10 3 8 4 -1 3 2 2 4 4 2 6 14 9 2 4 6 7 5 3 -0 -1 0 2 4
10 10 12 13 14 15 14 12 12 11 11 9 6 5 5 6 7 10 13 15 15 13 12 11 12 12 11 10 8 8 6 4 4 1 4 7 4 4 3 3 3 3 4 4 4 3 4 4 4 3 3 4 4 7 8 13 22 19 12 4 5 11 7 -1 -1 5 3 -2 2 2 2 5 7 7 6 8 6 2 1 6 12 9 4 2 -1 1 5 3
12 11 9 8 9 11 14 15 15 13 12 12 11 9 6 5 5 6 7 10 13 15 15 13 12 11 12 12 10 10 8 7 5 1 3 6 5 5 5 5 4 3 3 4 5 4 5 5 5 5 4 4 2 4 6 7 14 21 19 6 4 10 6 5 3 -1 1 5 6 1 0 3 9 18 6 -4 3 9 5 1 6 10 8 7 3 0 3 2
11 13 13 12 11 8 8 9 12 15 15 14 13 13 11 8 6 4 4 5 7 10 13 15 15 13 12 11 12 12 11 10 7 2 3 5 6 5 5 6 5 4 4 4 5 5 6 6 6 6 5 5 4 5 5 5 8 16 22 10 3 7 5 9 6 0 3 9 9 0 -1 4 11 19 8 -3 3 6 6 2 1 5 3 3 7 6 4 5
4 6 8 11 14 14 13 10 7 7 10 14 15 15 14 13 11 8 5 4 4 6 7 10 13 15 15 12 12 11 12 15 13 7 5 7 7 5 5 6 6 6 5 5 6 5 5 5 5 5 7 7 7 6 4 5 4 10 22 14 4 5 3 4 7 8 8 7 12 8 1 6 10 9 7 10 13 7 5 5 2 4 4 1 5 9 9 9
4 4 4 4 6 10 14 17 15 11 6 6 9 13 15 15 14 13 11 7 5 4 4 6 8 11 14 15 14 11 13 17 16 11 8 9 9 7 6 6 7 7 6 6 5 4 3 4 6 6 9 8 6 4 1 3 3 7 18 16 7 5 4 5 6 8 9 4 9 15 10 13 12 0 2 11 12 8 4 3 3 5 7 4 3 6 9 9
5 5 4 3 4 4 7 12 17 19 16 9 4 5 10 13 15 15 14 13 10 7 4 3 4 6 9 12 15 15 17 17 14 11 8 7 7 8 7 6 7 6 7 7 5 6 6 7 8 6 7 5 3 4 2 3 4 4 10 16 11 5 5 6 4 5 8 3 5 12 12 20 22 6 4 10 9 9 6 3 1 -2 0 6 6 7 7 4
4 5 5 4 4 3 4 6 10 16 21 20 13 6 3 7 11 14 15 15 14 13 9 5 3 4 5 7 12 15 17 17 15 12 9 8 7 7 6 5 6 6 6 7 7 7 7 8 7 6 5 4 5 5 3 3 3 2 6 15 13 6 6 5 3 4 6 6 5 8 11 18 23 13 7 10 11 7 6 9 8 4 3 8 9 5 7 8
6 6 5 5 4 3 3 3 5 10 17 21 21 15 8 4 4 8 12 14 15 14 14 12 8 4 2 4 8 8 9 14 16 14 12 12 12 12 12 9 7 8 8 7 9 9 9 8 6 6 5 5 6 4 5 7 6 5 5 10 11 8 8 8 5 4 6 8 4 5 10 13 15 17 10 6 10 3 -2 4 7 10 7 5 8 4 4 6
7 8 8 7 4 4 3 2 3 5 12 19 21 20 16 10 5 5 7 10 12 13 14 14 14 11 6 3 2 2 2 7 13 15 14 13 13 16 18 16 12 11 10 9 10 8 8 7 6 8 6 4 3 3 6 6 5 6 5 4 7 9 13 13 7 5 5 7 8 5 8 10 13 25 16 1 8 8 1 1 -2 2 6 3 1 -2 -5 -4
5 8 10 10 7 5 3 3 3 4 8 15 21 20 19 16 11 8 7 7 8 10 12 13 14 15 13 6 -0 1 4 5 8 12 15 14 13 15 17 17 15 13 12 11 10 9 8 8 7 6 5 5 6 5 3 -2 -2 2 3 2 3 9 18 15 7 8 5 5 11 7 9 11 13 29 22 2 5 6 5 9 2 -2 4 8 4 2 4 9
5 9 11 11 9 6 4 4 4 5 7 12 19 20 18 17 15 12 10 8 7 6 8 10 11 15 19 15 6 5 4 3 5 8 12 11 8 12 13 12 12 11 12 11 10 10 8 6 6 6 7 8 6 5 1 -1 1 2 1 2 3 7 17 16 8 7 4 6 11 8 14 12 15 30 16 2 10 8 8 13 8 3 4 9 10 7 8 11
7 10 11 10 8 6 5 5 4 6 8 10 17 20 18 16 15 14 13 12 11 9 7 7 7 9 14 15 12 11 8 6 6 6 10 7 2 7 9 7 8 8 8 10 10 11 10 8 7 7 8 6 3 4 4 2 3 4 3 3 3 4 13 16 10 8 5 8 8 7 15 12 24 37 10 -2 4 1 9 12 8 10 6 6 11 11 7 5
9 10 9 9 8 6 5 5 5 5 7 10 16 20 17 15 16 16 14 14 13 12 11 9 7 6 8 10 11 14 13 9 5 6 8 5 2 6 7 5 7 7 6 6 7 8 8 7 7 7 6 6 5 4 2 2 3 7 6 6 6 5 12 13 10 9 3 8 12 6 11 13 28 37 11 -1 -4 -3 15 18 13 11 4 4 7 9 9 4
9 9 9 8 6 6 6 5 5 5 7 10 15 20 17 14 14 15 16 15 15 14 14 13 13 10 8 7 6 8 13 11 6 5 4 2 3 5 6 5 5 6 6 5 5 6 6 7 7 6 5 5 5 3 3 6 9 9 8 9 10 8 11 10 9 10 3 8 11 10 26 27 23 24 9 -0 -4 2 15 15 15 9 1 6 6 5 4 0
10 9 8 7 6 6 6 5 5 5 7 10 15 20 16 13 13 14 15 15 15 15 15 15 15 14 12 11 6 3 9 13 12 10 6 3 3 4 4 3 4 5 4 4 5 5 6 6 3 1 5 8 7 7 9 11 10 8 9 10 11 9 11 11 8 7 7 5 3 23 43 22 3 6 2 -5 -9 1 11 7 11 12 6 9 8 8 9 6
10 9 8 7 6 6 5 6 6 5 6 9 16 20 16 13 12 13 14 14 16 16 17 17 17 18 18 20 18 10 7 8 9 12 12 9 6 6 6 4 3 4 4 4 5 8 7 2 -1 2 11 13 9 9 11 12 8 7 9 9 10 9 10 13 9 7 9 5 10 33 27 -6 -7 7 5 5 0 5 12 3 5 11 9 8 8 11 12 12
10 10 9 8 7 7 6 7 6 6 7 10 17 19 16 14 11 13 13 13 15 15 17 18 18 20 20 21 23 22 19 13 10 10 11 11 10 7 6 5 4 3 5 5 4 7 5 0 1 7 11 12 9 10 11 10 7 9 8 5 8 10 11 15 14 11 8 3 13 26 7 -10 4 9 9 17 10 4 9 8 11 11 6 7 7 8 8 8
9 9 9 8 7 7 6 7 6 6 7 11 17 18 16 14 12 13 12 12 14 15 16 17 17 17 17 16 16 19 23 22 19 16 12 12 12 10 7 7 7 6 7 7 3 1 0 0 5 9 8 7 7 9 10 9 8 9 7 5 5 7 14 22 18 7 3 2 7 22 17 2 3 4 4 12 11 3 3 10 13 9 6 6 4 6 6 4
8 8 8 8 7 7 7 6 6 7 9 14 17 17 16 14 14 13 11 12 12 13 14 15 17 14 12 14 12 11 15 17 19 20 19 15 15 16 13 10 9 8 7 5 4 2 1 3 7 7 4 4 8 11 11 9 9 7 5 7 5 4 12 21 16 -0 -0 2 -1 29 43 10 -3 5 -3 -4 2 -1 0 7 6 5 10 7 4 11 12 6
7 7 7 7 7 7 7 6 7 10 14 16 15 16 16 13 14 13 12 13 10 12 13 13 15 10 8 13 11 8 8 9 11 14 19 19 18 18 16 17 14 10 8 7 9 6 4 7 8 6 3 6 12 13 11 6 9 7 3 7 6 10 11 6 5 2 7 4 -6 29 45 5 -3 7 -2 -0 2 -3 2 5 -0 1 9 10 7 11 15 10
7 7 7 7 7 6 7 8 11 15 15 14 14 16 14 13 15 13 14 14 9 11 11 10 12 7 8 12 9 8 6 6 7 8 12 15 18 18 16 18 15 13 10 8 12 9 5 6 6 6 5 8 10 10 9 6 8 6 4 7 5 14 9 -11 -4 5 9 6 -7 17 25 -8 -3 8 0 3 1 1 5 0 2 5 6 12 17 15 12 8
9 8 7 8 7 6 9 10 13 15 11 10 15 17 14 13 15 14 16 14 10 13 11 7 8 8 10 8 7 10 8 6 7 7 9 10 15 18 18 17 14 17 15 11 15 12 8 5 5 6 6 9 10 6 8 8 9 5 5 9 7 22 16 -10 4 12 8 13 -4 5 20 1 -1 6 2 0 -4 6 13 5 9 12 4 2 5 10 14 14
9 7 7 8 7 8 11 13 16 14 11 15 18 16 15 14 14 15 17 15 14 17 13 8 7 12 15 9 6 9 9 10 9 7 8 9 12 15 17 19 15 16 16 12 11 8 8 6 5 5 5 9 6 4 10 10 10 6 10 15 9 24 17 -9 9 9 -5 14 6 4 27 18 1 3 9 7 0 5 11 5 -0 1 6 -1 -12 -7 5 12
8 8 9 9 11 13 14 17 20 16 13 15 14 13 14 16 16 17 18 18 19 19 15 12 9 10 15 12 8 8 9 12 11 11 11 8 9 10 14 19 17 17 18 14 9 9 11 9 7 5 5 6 3 9 15 9 12 8 12 18 6 19 20 -9 1 6 -6 4 2 7 28 22 5 3 10 12 7 8 10 8 1 1 9 8 1 0 4 6
9 12 13 13 16 16 18 24 20 12 12 14 13 13 13 14 16 15 15 18 23 23 17 15 14 11 13 15 12 11 11 12 10 10 11 10 9 10 14 18 17 19 21 19 16 14 10 9 11 8 7 7 5 14 12 6 13 11 15 19 5 23 26 -13 -10 17 18 6 6 22 23 12 8 4 10 14 8 9 8 5 6 7 7 6 9 11 8 3
15 16 16 19 20 19 25 25 15 11 17 18 17 14 12 15 16 15 18 18 17 19 19 19 20 16 14 17 17 15 15 16 15 10 8 10 11 15 21 23 23 21 20 19 17 13 11 11 13 10 9 9 9 13 9 10 14 11 20 13 -3 17 8 -25 -5 29 22 0 6 16 -5 -7 9 1 4 11 4 8 9 8 12 13 12 12 14 17 16 12
22 21 21 23 22 25 29 20 15 19 21 20 20 18 17 14 12 17 23 22 18 20 22 22 22 21 20 19 21 23 21 20 19 14 9 8 9 15 17 13 16 17 14 13 13 12 11 8 8 10 9 8 11 12 8 12 12 9 20 7 -0 22 -2 -32 -2 26 19 3 3 2 -16 -5 13 -2 -1 8 3 6 7 6 7 4 7 10 9 8 10 15
25 23 24 25 25 29 27 17 19 22 18 18 19 22 21 15 17 22 21 20 19 17 16 15 17 23 25 22 22 26 25 23 22 19 17 15 12 16 17 13 11 9 7 8 8 10 10 7 9 11 13 11 9 11 10 12 11 9 14 7 6 19 1 -24 -14 10 26 18 9 10 0 0 7 2 3 4 5 9 7 8 8 4 7 8 6 3 2 8
29 28 26 27 27 27 22 18 21 18 17 18 15 16 17 19 27 26 20 25 22 12 13 16 13 15 20 22 24 25 24 24 26 23 19 19 17 14 19 28 23 13 14 16 11 11 13 15 16 12 14 15 9 7 7 5 8 9 7 10 7 1 -3 -11 -14 2 18 11 9 15 8 0 1 7 8 4 10 13 7 12 16 12 10 6 6 4 2 2
27 29 28 26 25 22 18 20 21 18 18 18 17 15 13 23 29 20 19 22 16 11 14 17 14 9 11 13 18 25 24 21 26 25 14 13 16 10 11 22 21 15 21 24 16 11 9 5 6 5 5 11 11 8 9 10 13 13 10 18 20 7 1 -5 -11 -3 7 10 14 13 16 17 2 -1 6 5 9 10 3 3 4 7 10 9 13 11 5 2
22 28 29 23 20 17 16 21 21 20 21 16 14 13 19 31 24 17 18 3 2 16 11 7 9 7 11 13 14 22 27 25 23 20 16 14 15 13 13 19 20 15 16 19 16 12 11 6 5 14 18 16 16 13 14 16 16 19 16 11 14 15 8 -0 -10 -12 2 19 13 3 23 31 5 -5 4 3 1 0 2 1 0 10 15 10 14 17 12 6
17 24 22 15 18 17 18 27 22 16 18 14 13 17 28 31 13 12 10 -16 -5 18 6 3 7 1 9 18 14 10 22 38 22 3 12 25 26 21 19 23 22 15 8 11 17 10 10 12 6 16 24 17 20 26 21 11 10 23 18 -3 6 21 7 -6 -10 -14 0 19 11 4 19 22 7 2 4 6 5 1 5 7 3 6 10 9 10 12 10 3
17 21 19 17 22 21 24 32 18 8 14 14 16 19 23 24 7 2 -2 -13 9 22 3 5 9 2 5 14 16 2 10 38 24 -4 5 19 24 22 17 22 22 19 12 9 18 16 10 10 5 12 20 11 18 35 28 12 10 24 21 2 11 25 3 -15 -4 4 6 10 13 14 10 -1 -2 -2 -2 9 13 8 11 11 4 -1 1 11 14 10 10 6
21 22 22 19 22 26 34 34 11 5 15 16 17 13 15 18 -2 -5 7 10 17 11 -2 3 10 13 9 10 22 9 6 32 23 8 11 5 10 20 21 24 17 17 21 7 11 24 13 -0 5 22 24 3 6 27 28 17 9 12 21 16 8 18 12 -17 -17 10 20 11 8 15 13 4 4 3 2 11 11 6 8 5 4 7 6 10 13 10 12 12
20 24 26 27 32 35 35 23 3 6 16 14 11 4 8 8 -10 -0 20 9 1 5 5 5 9 20 15 10 18 9 14 34 19 12 18 2 4 20 31 34 13 11 23 4 1 28 21 -4 0 22 19 -1 2 16 15 9 2 -1 15 21 1 7 28 1 -32 -11 22 22 7 5 14 12 6 8 7 6 8 8 8 6 3 7 9 8 10 11 11 11
30 34 30 33 34 24 17 10 4 13 16 8 4 1 6 5 -6 8 14 -5 -1 21 18 2 4 18 17 17 17 5 14 25 7 7 14 2 2 14 38 48 16 6 21 -0 -10 22 25 -1 -0 19 15 2 4 11 10 5 -1 -2 12 24 6 -5 21 21 -12 -22 -5 11 7 -4 7 12 1 4 6 -1 5 9 9 12 11 8 12 14 13 13 10 9
36 25 15 20 16 9 13 11 9 18 13 4 5 5 5 2 -2 9 12 -6 -7 15 19 2 7 18 12 16 15 4 16 16 -0 6 4 -0 7 7 36 58 22 6 21 2 -9 18 20 -4 3 21 7 -11 -6 7 22 19 4 7 16 20 10 -3 9 18 9 3 -4 -3 4 -5 -4 7 0 0 8 5 3 4 3 5 6 6 8 12 16 14 10 10
17 4 7 19 12 10 17 12 14 21 10 5 11 9 3 0 -2 1 10 1 -16 6 28 12 13 21 11 18 12 1 20 12 -1 12 -2 -3 14 0 25 64 31 4 14 3 -0 17 11 -8 1 18 9 4 8 9 26 33 18 22 23 6 -4 -1 9 5 -5 13 22 10 15 16 3 1 -3 -8 0 8 7 7 7 5 2 4 2 0 5 11 13 10
12 3 9 17 14 18 20 15 18 16 5 8 15 13 5 0 -1 -6 5 13 -1 9 26 14 17 21 12 21 10 -1 20 7 -0 22 1 -1 20 -1 23 68 31 -7 3 8 9 9 3 -5 -7 5 21 29 23 17 36 44 25 22 20 1 -6 -1 11 10 -14 -9 19 19 16 25 22 13 11 3 -5 2 11 10 12 15 10 8 8 1 2 15 20 13
19 11 10 14 16 19 16 16 16 8 9 17 16 12 -0 -9 0 1 2 15 12 10 18 14 18 20 13 19 9 6 20 0 -1 21 3 7 22 -4 21 60 23 -3 5 10 14 6 1 6 -8 -6 21 22 5 15 36 23 -0 14 25 6 -1 3 8 18 4 -16 -0 16 11 13 19 16 18 16 1 1 12 8 7 19 20 15 13 7 6 15 16 8
14 11 8 8 13 15 13 19 17 9 16 21 12 9 -2 -14 -2 8 3 8 11 12 18 15 13 18 19 19 15 16 15 -3 -0 10 4 19 18 -5 23 43 17 15 13 0 10 7 3 17 -0 -15 2 -0 -13 8 27 10 -6 13 22 0 -4 9 13 18 14 -7 -12 3 10 8 8 10 16 17 6 6 18 17 9 12 16 15 13 9 5 6 10 10
7 7 1 -0 11 19 19 19 14 13 20 19 9 8 4 -7 -4 6 6 7 11 16 18 13 14 21 20 20 22 16 5 -0 -2 0 16 31 14 6 32 28 8 16 8 -5 11 8 -0 16 10 -6 -0 1 3 23 30 14 2 6 9 2 -1 6 14 15 10 2 -6 -7 4 10 3 2 8 9 6 6 12 20 21 17 14 16 21 25 17 7 8 12
6 7 3 6 16 20 22 21 19 22 22 13 6 5 4 -1 -1 6 7 5 12 17 15 15 20 19 15 20 24 12 7 8 -6 -3 26 26 3 11 24 8 -1 7 6 8 13 2 0 15 17 9 6 4 16 39 32 3 -6 5 8 4 -1 -3 6 12 2 -2 -1 -6 2 15 10 2 2 2 6 9 8 12 20 22 19 13 15 25 27 21 17 14
5 6 13 22 25 23 25 25 20 18 12 5 4 5 5 4 5 9 8 7 14 18 18 22 20 10 8 17 20 13 12 8 -9 2 29 19 11 28 21 1 1 3 8 18 9 -5 3 18 19 8 -4 -3 14 33 32 7 -7 4 10 6 8 13 19 16 1 -5 1 1 2 10 11 7 4 3 8 11 10 12 14 16 18 13 9 15 21 25 23 17
-1 10 27 28 22 20 20 18 10 7 7 5 3 3 8 7 4 7 10 12 19 25 25 22 13 5 8 16 19 14 9 2 -4 8 21 15 19 25 8 -3 4 3 6 14 8 0 -0 4 15 13 1 9 23 24 25 25 11 2 9 13 12 14 14 4 -6 -3 6 9 12 18 14 3 -4 2 13 12 10 16 17 14 15 13 12 15 19 22 20 14
2 21 28 18 14 16 13 11 8 5 6 4 0 2 9 8 4 10 14 14 22 29 22 12 9 8 11 19 20 8 -1 3 10 15 16 17 23 18 3 0 6 8 14 16 13 9 -3 -10 3 13 3 2 14 11 7 24 29 9 -0 2 5 10 10 1 -2 4 5 2 8 19 19 10 4 7 13 11 8 14 17 13 16 17 13 13 16 18 16 11
18 25 21 16 18 14 6 6 7 5 3 2 2 7 12 12 11 14 15 17 23 24 11 4 10 16 20 26 18 0 -1 12 19 16 9 11 18 14 8 7 3 6 14 17 15 11 3 -3 -2 4 2 -6 1 8 1 9 32 30 8 -6 2 18 15 2 3 10 6 -2 1 10 10 9 12 8 5 11 12 8 5 5 10 14 13 13 14 14 14 12
23 18 15 14 10 6 6 8 8 9 9 7 8 10 8 9 13 14 16 20 19 13 6 5 12 17 14 9 -1 -2 11 20 16 9 7 12 14 7 6 11 6 5 13 14 13 11 8 6 1 -0 4 1 2 11 10 5 15 29 24 3 -1 8 7 6 12 10 4 1 3 10 6 -4 -1 0 1 14 20 12 7 5 2 1 3 9 12 12 12 11
Height
5718 5718 5718 5719 5719 5720 5720 5721 5722 5722 5723 5724 5725 5726 5728 5729 5730 5732 5734 5736 5738 5740 5742 5744 5746 5748 5751 5753 5756 5758 5761 5763 5766 5769 5773 5774 5774 5777 5780 5781 5783 5785 5787 5789 5790 5792 5794 5795 5796 5798 5799 5800 5802 5804 5806 5808 5810 5812 5814 5817 5821 5824 5825 5825 5826 5828 5829 5829 5829 5831 5833 5833 5839 5844 5845 5843 5841 5842 5842 5842 5843 5846 5851 5853 5853 5854 5855 5857
5713 5713 5714 5714 5714 5715 5715 5716 5717 5717 5718 5719 5720 5721 5723 5724 5725 5727 5729 5731 5732 5734 5736 5739 5741 5743 5745 5748 5751 5754 5756 5759 5761 5766 5769 5768 5770 5773 5776 5778 5779 5781 5784 5785 5787 5789 5791 5792 5794 5795 5797 5798 5799 5801 5803 5805 5807 5809 5812 5815 5819 5822 5821 5821 5822 5824 5826 5827 5826 5828 5830 5832 5839 5841 5842 5841 5838 5840 5840 5840 5843 5846 5850 5852 5852 5852 5853 5855
5709 5709 5709 5709 5709 5710 5710 5711 5712 5713 5713 5714 5715 5716 5717 5719 5720 5722 5724 5725 5727 5729 5731 5733 5735 5738 5740 5743 5746 5749 5752 5754 5758 5762 5763 5763 5766 5769 5772 5774 5776 5778 5780 5782 5784 5786 5787 5789 5791 5793 5794 5796 5797 5798 5800 5802 5804 5807 5809 5813 5817 5818 5818 5818 5820 5821 5823 5824 5824 5825 5827 5832 5837 5838 5839 5839 5837 5838 5840 5840 5842 5846 5849 5850 5850 5850 5851 5854
5704 5704 5704 5704 5705 5705 5705 5706 5706 5707 5708 5709 5710 5711 5712 5714 5715 5717 5718 5720 5721 5723 5725 5727 5730 5732 5735 5737 5740 5743 5747 5750 5753 5757 5757 5758 5762 5765 5767 5770 5772 5774 5776 5778 5780 5782 5784 5786 5788 5790 5792 5793 5795 5796 5797 5799 5802 5804 5807 5812 5814 5815 5814 5815 5817 5817 5819 5820 5821 5823 5825 5831 5834 5834 5835 5836 5836 5837 5838 5840 5841 5845 5847 5847 5847 5848 5850 5852
5700 5700 5700 5700 5700 5700 5700 5701 5701 5702 5703 5704 5705 5706 5707 5708 5710 5712 5713 5715 5716 5718 5720 5722 5724 5726 5729 5732 5735 5738 5742 5745 5748 5751 5752 5754 5757 5760 5763 5765 5768 5770 5772 5774 5777 5779 5781 5783 5785 5787 5789 5791 5792 5794 5795 5797 5799 5802 5805 5809 5811 5812 5810 5811 5813 5812 5815 5817 5819 5821 5823 5829 5832 5832 5832 5832 5835 5835 5836 5838 5841 5844 5844 5844 5844 5846 5848 5850
5696 5696 5696 5696 5695 5695 5696 5696 5696 5697 5697 5698 5699 5701 5702 5703 5705 5706 5708 5709 5710 5712 5714 5717 5718 5721 5723 5726 5729 5733 5736 5739 5742 5746 5748 5750 5752 5756 5758 5761 5764 5766 5769 5771 5774 5776 5778 5780 5782 5784 5786 5788 5790 5792 5793 5794 5797 5799 5802 5805 5807 5809 5808 5809 5810 5808 5812 5816 5817 5818 5820 5826 5829 5830 5829 5830 5834 5833 5833 5835 5838 5843 5842 5840 5842 5845 5846 5847
5692 5692 5691 5691 5691 5691 5691 5691 5691 5692 5692 5693 5694 5695 5696 5698 5699 5701 5703 5704 5705 5707 5709 5711 5713 5715 5718 5721 5724 5727 5731 5734 5736 5741 5744 5745 5748 5751 5754 5757 5760 5762 5765 5767 5770 5773 5775 5777 5779 5781 5783 5785 5787 5789 5791 5792 5794 5796 5799 5802 5804 5806 5806 5808 5808 5808 5811 5814 5815 5816 5819 5824 5827 5828 5827 5829 5832 5831 5831 5832 5835 5841 5841 5839 5841 5843 5844 5845
5688 5688 5687 5687 5686 5686 5686 5687 5687 5687 5687 5688 5688 5689 5690 5692 5693 5695 5697 5698 5700 5701 5704 5706 5708 5710 5713 5716 5719 5722 5727 5729 5730 5735 5738 5741 5743 5746 5749 5752 5755 5758 5761 5763 5766 5769 5771 5773 5775 5778 5780 5782 5784 5786 5788 5789 5792 5794 5797 5800 5802 5803 5804 5805 5806 5807 5809 5811 5814 5816 5818 5822 5826 5826 5825 5826 5829 5829 5829 5829 5831 5837 5839 5838 5839 5841 5843 5844
5684 5683 5683 5682 5682 5682 5681 5681 5682 5682 5683 5683 5683 5684 5685 5686 5687 5689 5691 5692 5694 5696 5698 5700 5703 5705 5708 5711 5713 5718 5724 5723 5724 5729 5732 5735 5738 5741 5744 5747 5750 5753 5756 5759 5762 5764 5767 5769 5772 5774 5777 5779 5780 5782 5784 5786 5789 5792 5795 5797 5799 5800 5801 5803 5804 5804 5806 5809 5813 5816 5817 5821 5824 5824 5822 5823 5825 5825 5827 5826 5828 5833 5836 5837 5838 5840 5842 5844
5679 5678 5678 5678 5677 5677 5676 5676 5676 5677 5677 5677 5678 5678 5679 5680 5682 5683 5685 5686 5688 5690 5692 5695 5698 5700 5703 5706 5709 5716 5720 5715 5717 5721 5724 5728 5732 5735 5738 5741 5745 5748 5751 5754 5757 5760 5763 5766 5768 5770 5773 5775 5777 5779 5781 5783 5786 5789 5791 5794 5795 5797 5798 5801 5801 5801 5802 5805 5810 5813 5815 5819 5822 5821 5820 5821 5821 5822 5824 5824 5826 5830 5833 5836 5837 5839 5840 5842
5674 5673 5673 5672 5672 5672 5671 5671 5671 5671 5671 5671 5672 5673 5674 5675 5676 5677 5679 5680 5682 5684 5686 5689 5692 5695 5699 5701 5706 5714 5712 5708 5712 5715 5718 5723 5727 5730 5732 5736 5740 5743 5746 5749 5752 5756 5759 5762 5764 5766 5768 5771 5774 5776 5778 5780 5782 5785 5788 5791 5792 5793 5795 5797 5798 5799 5799 5802 5808 5811 5813 5816 5818 5818 5817 5817 5818 5820 5822 5824 5825 5828 5831 5834 5836 5837 5839 5840
5668 5668 5667 5667 5667 5666 5666 5665 5665 5665 5665 5665 5665 5666 5667 5669 5670 5671 5673 5674 5676 5678 5680 5683 5686 5689 5693 5697 5704 5709 5704 5703 5708 5710 5714 5718 5722 5726 5729 5732 5735 5738 5742 5745 5748 5751 5754 5757 5759 5762 5765 5768 5771 5773 5775 5777 5779 5782 5785 5787 5789 5790 5792 5794 5796 5797 5797 5800 5806 5808 5810 5812 5813 5816 5815 5814 5815 5817 5819 5823 5825 5826 5829 5832 5833 5835 5837 5839
5662 5662 5662 5661 5661 5661 5660 5660 5659 5659 5659 5658 5659 5660 5661 5662 5664 5665 5667 5668 5670 5672 5674 5677 5680 5684 5687 5694 5700 5700 5696 5699 5703 5705 5710 5713 5717 5723 5726 5728 5730 5733 5737 5740 5743 5746 5749 5752 5755 5758 5761 5764 5766 5769 5772 5774 5776 5779 5782 5784 5786 5788 5789 5791 5793 5795 5795 5799 5804 5805 5807 5809 5812 5815 5815 5812 5812 5814 5815 5819 5825 5827 5827 5829 5830 5833 5835 5837
5656 5656 5655 5655 5655 5655 5654 5654 5654 5653 5653 5652 5652 5653 5654 5656 5657 5659 5660 5662 5664 5666 5668 5671 5674 5677 5682 5689 5693 5691 5691 5695 5699 5702 5705 5708 5713 5718 5721 5723 5725 5729 5732 5736 5739 5742 5745 5748 5751 5754 5757 5760 5763 5765 5768 5769 5772 5775 5778 5780 5783 5785 5787 5789 5791 5792 5794 5799 5802 5803 5805 5808 5810 5814 5814 5811 5809 5810 5811 5816 5824 5826 5825 5827 5828 5831 5833 5835
5650 5649 5649 5649 5649 5649 5648 5648 5648 5647 5647 5646 5646 5646 5647 5649 5650 5652 5653 5655 5657 5660 5662 5665 5668 5672 5677 5684 5685 5684 5686 5690 5695 5699 5700 5703 5710 5714 5716 5717 5721 5724 5728 5732 5735 5737 5741 5744 5747 5750 5753 5756 5759 5761 5764 5765 5768 5773 5775 5777 5780 5783 5785 5787 5789 5790 5793 5797 5799 5801 5804 5806 5808 5812 5812 5810 5807 5808 5811 5815 5821 5823 5824 5826 5827 5828 5830 5833
5643 5643 5643 5642 5642 5642 5642 5642 5641 5641 5641 5640 5640 5640 5641 5642 5644 5645 5647 5649 5651 5654 5656 5659 5662 5667 5672 5677 5677 5678 5682 5687 5692 5694 5695 5700 5705 5709 5711 5712 5716 5720 5723 5727 5730 5733 5736 5739 5743 5746 5749 5752 5755 5758 5760 5762 5766 5770 5772 5774 5777 5780 5783 5785 5787 5789 5791 5795 5796 5799 5802 5804 5807 5810 5810 5808 5805 5807 5812 5814 5817 5820 5822 5824 5825 5826 5828 5830
5636 5636 5636 5636 5636 5635 5635 5635 5635 5635 5635 5634 5634 5634 5634 5635 5637 5639 5640 5642 5644 5647 5649 5652 5657 5662 5667 5668 5669 5673 5677 5682 5685 5688 5691 5695 5700 5703 5705 5708 5712 5714 5718 5721 5725 5728 5731 5734 5738 5742 5745 5748 5751 5754 5756 5758 5763 5766 5769 5771 5775 5778 5780 5782 5784 5787 5790 5792 5794 5797 5801 5802 5805 5807 5808 5806 5804 5807 5811 5813 5816 5818 5818 5820 5822 5824 5825 5827
5629 5629 5629 5629 5629 5629 5629 5628 5628 5628 5628 5628 5628 5628 5628 5629 5630 5632 5634 5636 5638 5640 5643 5646 5651 5656 5658 5658 5662 5667 5670 5674 5677 5680 5684 5688 5692 5696 5699 5703 5706 5709 5712 5716 5720 5723 5726 5730 5734 5737 5741 5744 5746 5748 5751 5755 5760 5763 5766 5769 5772 5775 5778 5780 5781 5784 5788 5791 5792 5795 5798 5800 5802 5804 5806 5806 5804 5806 5809 5811 5813 5814 5815 5816 5819 5821 5823 5825
5622 5622 5622 5622 5622 5622 5622 5622 5621 5621 5622 5622 5622 5622 5622 5623 5624 5625 5627 5630 5632 5634 5637 5639 5644 5648 5649 5650 5656 5660 5663 5667 5670 5674 5678 5682 5685 5689 5693 5697 5700 5704 5707 5711 5715 5718 5722 5725 5728 5732 5737 5740 5742 5745 5749 5754 5758 5761 5764 5767 5771 5773 5775 5778 5779 5781 5786 5789 5791 5794 5796 5798 5799 5800 5803 5805 5803 5803 5806 5808 5809 5810 5812 5813 5815 5818 5820 5822
5615 5615 5615 5615 5614 5614 5615 5614 5614 5615 5615 5616 5616 5616 5616 5617 5618 5619 5621 5624 5627 5629 5631 5634 5638 5642 5643 5645 5650 5653 5656 5660 5664 5668 5672 5676 5680 5683 5687 5691 5694 5698 5702 5707 5711 5714 5717 5720 5725 5730 5734 5737 5740 5743 5748 5752 5755 5758 5762 5765 5768 5771 5773 5777 5777 5778 5782 5787 5790 5794 5795 5795 5797 5798 5800 5802 5801 5800 5803 5806 5806 5807 5809 5811 5813 5815 5817 5821
5607 5607 5607 5607 5607 5607 5607 5607 5608 5608 5609 5609 5609 5609 5609 5610 5612 5613 5616 5619 5621 5623 5626 5629 5632 5637 5639 5640 5644 5647 5651 5655 5659 5662 5665 5670 5673 5677 5682 5686 5689 5693 5699 5703 5706 5709 5712 5716 5723 5728 5731 5734 5737 5742 5746 5749 5752 5756 5759 5762 5765 5768 5771 5775 5775 5775 5779 5783 5789 5793 5793 5793 5796 5797 5797 5799 5799 5798 5801 5803 5803 5805 5807 5810 5813 5814 5816 5820
5599 5599 5599 5600 5600 5600 5600 5600 5601 5602 5602 5602 5603 5603 5603 5604 5606 5608 5610 5613 5616 5618 5621 5624 5626 5632 5634 5635 5637 5641 5645 5650 5653 5657 5661 5664 5667 5672 5678 5680 5684 5690 5694 5696 5700 5703 5708 5715 5721 5724 5726 5730 5733 5739 5743 5746 5749 5753 5756 5758 5762 5765 5769 5772 5773 5774 5777 5780 5787 5792 5792 5792 5793 5795 5795 5796 5796 5796 5799 5799 5799 5803 5805 5808 5811 5812 5815 5818
5590 5591 5591 5591 5592 5592 5592 5593 5594 5595 5595 5596 5596 5596 5597 5599 5600 5602 5604 5607 5611 5613 5616 5619 5621 5626 5629 5630 5633 5637 5641 5645 5648 5652 5656 5659 5663 5669 5672 5674 5680 5684 5686 5690 5696 5701 5706 5712 5716 5717 5721 5725 5730 5736 5739 5742 5747 5750 5752 5755 5759 5763 5767 5770 5771 5773 5775 5779 5785 5789 5791 5792 5791 5793 5795 5794 5793 5795 5795 5795 5797 5801 5803 5805 5808 5811 5813 5815
5581 5582 5582 5583 5584 5585 5585 5586 5587 5588 5589 5589 5589 5590 5591 5592 5594 5596 5598 5601 5606 5608 5610 5613 5616 5621 5624 5625 5628 5632 5636 5640 5643 5647 5651 5654 5659 5663 5666 5671 5675 5677 5681 5689 5694 5698 5703 5709 5711 5713 5717 5722 5727 5732 5735 5739 5743 5746 5749 5752 5757 5761 5765 5769 5771 5772 5774 5778 5783 5786 5787 5789 5789 5790 5792 5791 5790 5792 5792 5793 5795 5798 5800 5804 5806 5809 5811 5812
5572 5573 5574 5574 5576 5577 5578 5579 5580 5581 5581 5581 5583 5584 5585 5586 5588 5591 5593 5596 5600 5603 5605 5609 5613 5616 5618 5620 5624 5628 5631 5634 5638 5642 5646 5650 5653 5657 5662 5666 5668 5671 5679 5686 5689 5694 5699 5702 5706 5709 5714 5719 5724 5728 5731 5735 5741 5744 5746 5750 5756 5760 5762 5767 5770 5770 5773 5776 5780 5782 5783 5784 5785 5787 5789 5787 5786 5789 5790 5791 5793 5795 5798 5802 5804 5807 5808 5810
5563 5564 5565 5566 5567 5568 5570 5571 5572 5573 5573 5575 5577 5578 5579 5581 5583 5585 5587 5590 5594 5597 5600 5605 5608 5610 5612 5616 5621 5623 5626 5629 5633 5636 5641 5646 5649 5653 5656 5659 5663 5669 5677 5682 5684 5688 5693 5696 5701 5706 5711 5716 5720 5724 5728 5733 5738 5741 5745 5750 5755 5758 5760 5763 5768 5769 5770 5773 5777 5779 5780 5781 5782 5784 5785 5783 5782 5786 5789 5790 5792 5794 5796 5799 5802 5805 5807 5809
5553 5554 5555 5556 5558 5560 5561 5563 5564 5565 5567 5569 5571 5572 5574 5576 5578 5580 5582 5585 5588 5591 5595 5600 5603 5605 5607 5611 5615 5617 5621 5625 5629 5633 5637 5641 5644 5647 5650 5654 5660 5666 5671 5674 5676 5683 5689 5692 5697 5702 5707 5711 5715 5720 5725 5730 5735 5738 5744 5749 5752 5756 5758 5761 5766 5768 5769 5772 5775 5775 5777 5779 5780 5782 5782 5781 5781 5783 5787 5789 5791 5792 5794 5797 5800 5803 5806 5808
5542 5544 5545 5547 5549 5551 5553 5555 5556 5558 5560 5563 5565 5566 5568 5570 5572 5575 5578 5580 5583 5587 5591 5595 5598 5600 5602 5606 5609 5613 5617 5621 5625 5630 5632 5634 5638 5641 5645 5650 5656 5662 5665 5667 5672 5681 5685 5687 5692 5698 5702 5706 5711 5718 5723 5727 5732 5737 5743 5747 5749 5754 5758 5759 5764 5767 5767 5770 5771 5770 5773 5776 5777 5779 5780 5780 5779 5780 5783 5786 5788 5791 5793 5795 5798 5801 5804 5806
5530 5533 5534 5537 5540 5542 5545 5547 5549 5550 5553 5556 5558 5561 5563 5565 5567 5570 5573 5576 5580 5583 5586 5590 5593 5595 5598 5601 5605 5609 5612 5615 5620 5623 5625 5628 5633 5637 5642 5648 5653 5656 5659 5663 5670 5677 5679 5683 5690 5693 5697 5703 5710 5716 5719 5724 5730 5736 5741 5745 5748 5752 5755 5757 5760 5764 5765 5765 5766 5767 5769 5771 5773 5775 5776 5776 5776 5776 5779 5783 5786 5790 5793 5794 5796 5799 5802 5804
5519 5521 5524 5527 5530 5533 5537 5539 5540 5544 5547 5550 5553 5555 5557 5560 5562 5565 5568 5572 5576 5578 5581 5586 5588 5590 5594 5597 5601 5603 5606 5610 5614 5616 5619 5623 5628 5633 5639 5643 5646 5650 5654 5659 5666 5671 5676 5682 5686 5688 5695 5703 5708 5712 5716 5721 5728 5734 5738 5742 5746 5749 5752 5754 5756 5760 5762 5761 5763 5765 5767 5769 5770 5771 5772 5774 5774 5774 5778 5782 5785 5789 5791 5793 5795 5797 5799 5802
5507 5511 5514 5517 5521 5526 5530 5531 5534 5538 5541 5545 5548 5550 5553 5555 5558 5561 5565 5569 5573 5575 5578 5582 5584 5587 5590 5593 5596 5598 5602 5605 5608 5611 5614 5618 5623 5627 5632 5636 5639 5643 5648 5654 5660 5666 5672 5677 5680 5686 5693 5699 5704 5708 5713 5719 5724 5729 5734 5737 5742 5747 5749 5750 5751 5754 5756 5758 5761 5764 5766 5768 5769 5769 5770 5772 5772 5774 5779 5782 5785 5787 5789 5792 5794 5796 5797 5799
5497 5501 5505 5509 5514 5519 5522 5524 5528 5532 5536 5540 5543 5546 5549 5551 5554 5559 5563 5566 5570 5572 5574 5577 5579 5583 5586 5589 5592 5594 5597 5600 5602 5606 5609 5613 5618 5622 5626 5630 5633 5637 5643 5649 5657 5663 5667 5673 5679 5684 5688 5693 5699 5704 5709 5714 5719 5724 5729 5732 5737 5742 5745 5746 5747 5748 5751 5754 5759 5762 5765 5766 5765 5766 5767 5768 5769 5772 5777 5780 5783 5785 5787 5789 5791 5793 5795 5797
5488 5493 5498 5502 5507 5511 5514 5518 5522 5526 5531 5535 5537 5541 5544 5548 5553 5558 5560 5564 5568 5570 5572 5574 5576 5579 5582 5585 5588 5590 5593 5596 5599 5602 5605 5609 5614 5618 5623 5628 5631 5636 5642 5648 5654 5659 5664 5670 5676 5679 5683 5689 5694 5698 5703 5708 5713 5719 5723 5727 5731 5736 5739 5741 5742 5744 5747 5750 5755 5761 5764 5763 5762 5762 5763 5763 5765 5768 5773 5777 5779 5782 5783 5785 5788 5790 5792 5794
5483 5487 5492 5497 5502 5505 5509 5513 5517 5521 5526 5530 5533 5537 5541 5547 5552 5555 5558 5563 5566 5568 5571 5573 5575 5576 5579 5582 5586 5587 5590 5593 5596 5599 5602 5605 5610 5614 5619 5624 5629 5635 5642 5647 5650 5655 5660 5664 5669 5674 5679 5685 5691 5695 5701 5707 5710 5715 5721 5724 5727 5731 5735 5738 5740 5742 5745 5747 5752 5758 5761 5759 5758 5759 5759 5760 5762 5764 5768 5773 5777 5779 5781 5783 5785 5787 5789 5791
5479 5483 5488 5493 5496 5499 5504 5509 5513 5518 5522 5526 5530 5534 5541 5547 5550 5552 5556 5561 5564 5567 5569 5571 5573 5575 5577 5580 5584 5586 5589 5591 5593 5596 5599 5603 5606 5611 5616 5621 5626 5632 5638 5643 5648 5654 5659 5662 5667 5674 5678 5682 5689 5694 5700 5706 5708 5713 5720 5722 5724 5728 5732 5737 5740 5742 5744 5747 5750 5754 5754 5754 5755 5756 5756 5758 5760 5761 5766 5771 5775 5777 5778 5780 5781 5783 5785 5787
5476 5480 5484 5488 5491 5495 5500 5505 5510 5515 5520 5523 5528 5535 5541 5545 5547 5551 5556 5559 5563 5566 5567 5570 5572 5574 5576 5578 5581 5585 5588 5591 5593 5594 5598 5602 5605 5609 5614 5619 5624 5629 5634 5641 5647 5652 5657 5662 5667 5673 5677 5681 5687 5692 5696 5701 5705 5711 5715 5716 5722 5728 5731 5735 5740 5741 5743 5745 5746 5748 5748 5749 5751 5752 5754 5757 5758 5759 5764 5768 5772 5774 5776 5777 5778 5780 5782 5784
5474 5478 5482 5485 5488 5492 5497 5502 5508 5513 5517 5522 5528 5535 5540 5543 5546 5550 5554 5557 5561 5564 5566 5569 5571 5573 5576 5577 5580 5583 5588 5591 5592 5593 5596 5601 5604 5607 5612 5618 5623 5628 5633 5640 5647 5652 5657 5662 5666 5671 5676 5680 5685 5689 5693 5698 5704 5710 5712 5714 5722 5727 5728 5732 5737 5738 5739 5741 5743 5744 5746 5747 5749 5750 5752 5754 5755 5758 5763 5766 5768 5771 5772 5774 5776 5777 5779 5781
5473 5476 5479 5482 5486 5490 5495 5501 5507 5513 5517 5521 5528 5534 5538 5542 5546 5550 5552 5555 5559 5562 5565 5568 5571 5573 5575 5577 5579 5582 5586 5590 5591 5593 5596 5600 5603 5606 5611 5616 5622 5628 5633 5639 5647 5653 5658 5662 5665 5669 5675 5679 5683 5687 5692 5697 5702 5707 5711 5715 5719 5722 5724 5728 5731 5733 5735 5737 5738 5741 5743 5746 5747 5749 5750 5753 5755 5759 5762 5764 5766 5768 5770 5772 5774 5775 5777 5779
5472 5475 5478 5482 5486 5491 5496 5502 5508 5512 5517 5522 5529 5534 5538 5542 5546 5549 5552 5555 5558 5561 5564 5566 5569 5572 5574 5576 5579 5581 5585 5589 5591 5594 5596 5599 5603 5607 5611 5615 5620 5627 5633 5638 5645 5652 5658 5661 5664 5669 5674 5677 5680 5683 5687 5692 5697 5703 5709 5713 5717 5720 5723 5726 5727 5729 5732 5733 5735 5737 5739 5742 5744 5746 5748 5752 5755 5758 5761 5762 5764 5766 5769 5770 5772 5773 5775 5777
5473 5476 5479 5484 5489 5493 5498 5503 5508 5512 5518 5524 5531 5535 5537 5540 5544 5548 5551 5555 5558 5561 5563 5565 5568 5570 5572 5575 5578 5579 5582 5586 5591 5594 5596 5600 5604 5607 5610 5613 5620 5628 5633 5637 5643 5649 5655 5660 5662 5666 5671 5674 5675 5678 5683 5687 5692 5697 5702 5708 5713 5716 5720 5725 5726 5727 5729 5732 5733 5734 5736 5739 5742 5743 5745 5748 5751 5754 5757 5759 5761 5764 5766 5768 5769 5771 5773 5775
5474 5478 5482 5488 5493 5497 5500 5504 5509 5514 5520 5527 5532 5534 5537 5540 5544 5547 5551 5554 5557 5560 5562 5563 5565 5568 5571 5574 5577 5578 5579 5582 5586 5591 5595 5600 5603 5606 5610 5613 5619 5628 5633 5636 5640 5645 5651 5657 5659 5662 5667 5670 5671 5677 5685 5689 5691 5695 5699 5704 5710 5713 5717 5721 5722 5724 5727 5729 5731 5732 5735 5738 5740 5741 5743 5745 5748 5750 5753 5756 5758 5760 5762 5765 5767 5769 5771 5773
5477 5481 5486 5491 5495 5498 5501 5506 5511 5517 5523 5528 5531 5534 5537 5541 5544 5548 5551 5553 5556 5558 5560 5562 5564 5567 5570 5573 5576 5578 5579 5581 5584 5588 5593 5598 5602 5605 5610 5614 5619 5627 5632 5635 5639 5643 5648 5653 5656 5659 5664 5668 5671 5677 5685 5689 5691 5695 5698 5703 5708 5712 5714 5717 5719 5722 5725 5728 5729 5730 5733 5735 5738 5740 5741 5743 5745 5748 5750 5753 5756 5758 5759 5762 5764 5766 5768 5770
5481 5485 5489 5493 5497 5500 5504 5509 5513 5518 5523 5527 5531 5534 5537 5540 5544 5547 5550 5552 5555 5556 5559 5561 5563 5566 5569 5572 5575 5577 5579 5582 5586 5589 5591 5595 5600 5605 5609 5614 5619 5624 5629 5633 5638 5642 5645 5650 5654 5658 5662 5667 5672 5677 5682 5686 5689 5692 5696 5700 5705 5709 5712 5715 5719 5721 5723 5726 5726 5727 5729 5732 5734 5737 5738 5741 5743 5745 5748 5751 5753 5755 5757 5759 5761 5763 5765 5766
5486 5489 5492 5495 5499 5503 5507 5511 5515 5519 5523 5527 5531 5534 5538 5541 5544 5546 5549 5552 5554 5556 5558 5560 5562 5565 5568 5571 5574 5576 5579 5583 5587 5590 5591 5594 5600 5604 5608 5614 5620 5623 5628 5633 5636 5640 5643 5647 5651 5655 5659 5664 5668 5672 5676 5682 5685 5688 5693 5698 5702 5706 5710 5714 5717 5719 5721 5723 5724 5725 5727 5729 5731 5734 5736 5739 5742 5743 5745 5747 5749 5751 5754 5756 5758 5760 5761 5762
5490 5493 5496 5498 5502 5506 5510 5513 5516 5520 5523 5527 5532 5535 5539 5543 5545 5546 5548 5550 5552 5554 5556 5559 5562 5565 5568 5571 5573 5576 5579 5582 5586 5589 5591 5594 5600 5605 5607 5613 5620 5624 5629 5634 5636 5639 5643 5646 5649 5652 5655 5658 5662 5665 5669 5675 5680 5684 5690 5695 5698 5702 5706 5710 5713 5715 5717 5720 5721 5722 5724 5726 5728 5730 5733 5735 5738 5740 5741 5743 5744 5747 5750 5752 5754 5755 5756 5758
5494 5497 5500 5503 5505 5508 5512 5515 5518 5522 5526 5530 5533 5537 5540 5543 5545 5547 5549 5550 5552 5554 5556 5559 5561 5564 5567 5570 5573 5577 5580 5582 5585 5588 5590 5593 5599 5604 5606 5612 5619 5625 5629 5633 5635 5638 5642 5644 5648 5653 5656 5659 5662 5666 5670 5675 5679 5682 5686 5691 5695 5699 5703 5707 5710 5712 5714 5716 5717 5719 5721 5723 5724 5727 5730 5732 5735 5737 5738 5739 5741 5744 5746 5748 5749 5751 5752 5754
5498 5500 5503 5506 5508 5511 5513 5517 5521 5524 5528 5532 5535 5538 5541 5543 5545 5547 5549 5550 5552 5554 5556 5558 5561 5564 5567 5570 5573 5576 5580 5583 5585 5587 5591 5594 5598 5603 5606 5611 5618 5624 5628 5631 5633 5638 5641 5644 5648 5653 5657 5661 5665 5668 5672 5675 5679 5681 5684 5688 5693 5697 5701 5704 5707 5710 5711 5713 5714 5715 5718 5720 5722 5725 5727 5729 5731 5733 5735 5736 5738 5740 5742 5744 5745 5747 5749 5751
5502 5504 5506 5509 5511 5513 5516 5520 5523 5526 5530 5533 5536 5539 5541 5544 5546 5547 5549 5550 5552 5554 5556 5558 5561 5564 5567 5570 5573 5576 5580 5583 5585 5588 5592 5596 5599 5603 5607 5612 5617 5623 5627 5629 5632 5637 5640 5644 5648 5652 5655 5660 5663 5667 5671 5674 5677 5681 5684 5687 5691 5695 5699 5702 5705 5707 5709 5711 5711 5713 5716 5718 5720 5722 5724 5726 5728 5731 5732 5733 5735 5736 5738 5740 5741 5744 5746 5748
5505 5508 5510 5512 5514 5517 5520 5522 5525 5528 5532 5535 5537 5540 5542 5544 5546 5547 5549 5551 5552 5554 5556 5559 5562 5564 5568 5571 5574 5577 5581 5583 5585 5589 5593 5596 5599 5602 5607 5612 5616 5620 5625 5628 5631 5636 5639 5643 5647 5651 5654 5657 5661 5664 5668 5671 5675 5679 5682 5685 5688 5692 5696 5699 5701 5704 5707 5708 5709 5710 5713 5716 5717 5720 5722 5724 5726 5728 5729 5730 5731 5733 5735 5737 5739 5741 5743 5746
5508 5511 5514 5515 5517 5520 5523 5526 5529 5532 5534 5537 5539 5541 5543 5544 5545 5547 5549 5551 5552 5554 5557 5560 5562 5565 5568 5571 5575 5578 5581 5583 5586 5590 5593 5596 5598 5602 5606 5611 5615 5619 5623 5626 5630 5634 5638 5642 5646 5649 5653 5656 5659 5662 5664 5668 5671 5675 5677 5680 5684 5688 5691 5694 5697 5700 5703 5704 5705 5707 5710 5713 5715 5718 5720 5721 5724 5725 5726 5727 5729 5731 5733 5735 5737 5739 5741 5743
5511 5513 5516 5518 5521 5523 5525 5529 5531 5534 5536 5539 5540 5541 5543 5544 5545 5547 5549 5550 5552 5555 5558 5560 5563 5565 5568 5571 5575 5578 5581 5583 5586 5589 5592 5596 5598 5601 5605 5609 5614 5619 5622 5625 5629 5633 5637 5641 5644 5648 5651 5654 5658 5660 5663 5665 5668 5671 5674 5678 5681 5684 5687 5690 5693 5696 5699 5701 5702 5704 5707 5710 5713 5715 5717 5719 5721 5723 5724 5725 5727 5729 5731 5733 5735 5737 5739 5741
5514 5516 5519 5521 5524 5526 5528 5531 5534 5536 5538 5540 5541 5543 5544 5545 5546 5548 5549 5551 5553 5556 5558 5561 5563 5566 5569 5572 5575 5578 5581 5584 5587 5589 5592 5596 5598 5601 5604 5608 5614 5619 5622 5624 5627 5631 5635 5639 5643 5646 5649 5652 5656 5659 5660 5663 5666 5668 5672 5675 5677 5679 5683 5687 5690 5692 5695 5698 5700 5703 5705 5708 5711 5713 5715 5716 5718 5720 5722 5724 5726 5728 5729 5731 5733 5735 5736 5738